TimeEST,TemperatureF,Dew PointF,Humidity,Sea Level PressureIn,VisibilityMPH,Wind Direction,Wind SpeedMPH,Gust SpeedMPH,PrecipitationIn,Events,Conditions,WindDirDegrees,DateUTC
12:54 AM,59.0,53.1,81,29.50,10.0,SSE,21.9,43.7,0.05,,Overcast,150,2012-12-21 05:54:00
1:33 AM,60.8,55.4,82,29.45,5.0,SSE,26.5,42.6,0.04,Rain,Light Rain,150,2012-12-21 06:33:00
1:54 AM,60.1,55.0,83,29.44,6.0,SSE,23.0,38.0,0.07,Rain,Light Rain,150,2012-12-21 06:54:00
2:29 AM,60.8,55.4,82,29.41,2.0,SSE,23.0,41.4,0.11,Rain,Rain,150,2012-12-21 07:29:00
2:38 AM,60.8,55.4,82,29.40,2.0,SSE,21.9,38.0,0.14,Rain,Rain,160,2012-12-21 07:38:00
2:45 AM,60.8,55.4,82,29.38,2.5,SSE,24.2,35.7,0.16,Rain,Rain,160,2012-12-21 07:45:00
2:52 AM,60.8,55.4,82,29.37,5.0,SSE,26.5,48.3,0.16,Rain,Light Rain,150,2012-12-21 07:52:00
2:54 AM,61.0,55.9,83,29.38,6.0,SSE,21.9,48.3,0.16,Rain,Light Rain,150,2012-12-21 07:54:00
3:01 AM,60.8,55.4,82,29.36,2.5,SSE,20.7,38.0,0.06,Rain,Heavy Rain,150,2012-12-21 08:01:00
3:16 AM,60.8,57.2,88,29.34,4.0,SSE,31.1,49.5,0.10,Rain,Rain,150,2012-12-21 08:16:00
3:38 AM,60.8,57.2,88,29.32,2.5,SSE,19.6,34.5,0.18,Rain,Rain,160,2012-12-21 08:38:00
3:45 AM,62.6,57.2,82,29.30,4.0,SSE,25.3,46.0,0.20,Rain,Light Rain,160,2012-12-21 08:45:00
3:54 AM,62.1,57.0,84,29.31,5.0,SSE,24.2,35.7,0.21,Rain,Light Rain,160,2012-12-21 08:54:00
4:54 AM,61.0,57.0,87,29.26,2.5,South,19.6,33.4,0.08,Rain,Light Rain,190,2012-12-21 09:54:00
5:01 AM,60.8,57.2,88,29.26,4.0,South,21.9,32.2,0.01,Rain,Light Rain,180,2012-12-21 10:01:00
5:16 AM,57.2,51.8,82,29.27,4.0,WSW,18.4,35.7,0.03,Rain,Light Rain,250,2012-12-21 10:16:00
5:23 AM,55.4,51.8,88,29.26,9.0,WSW,15.0,21.9,0.03,Rain,Light Rain,250,2012-12-21 10:23:00
5:54 AM,55.0,50.0,83,29.29,10.0,WSW,16.1,-,0.03,,Overcast,240,2012-12-21 10:54:00
6:33 AM,53.6,46.4,77,29.31,10.0,WSW,17.3,24.2,N/A,,Mostly Cloudy,250,2012-12-21 11:33:00
6:54 AM,53.1,46.0,77,29.33,10.0,WSW,13.8,23.0,N/A,,Overcast,240,2012-12-21 11:54:00
7:09 AM,51.8,44.6,76,29.31,10.0,SW,13.8,25.3,N/A,,Mostly Cloudy,230,2012-12-21 12:09:00
7:28 AM,51.8,44.6,76,29.32,10.0,SW,13.8,20.7,N/A,,Mostly Cloudy,230,2012-12-21 12:28:00
7:54 AM,50.0,43.0,77,29.35,10.0,West,12.7,23.0,N/A,,Overcast,270,2012-12-21 12:54:00
8:37 AM,44.6,37.4,76,29.37,10.0,WNW,12.7,-,0.00,,Overcast,290,2012-12-21 13:37:00
8:54 AM,44.1,37.0,76,29.39,7.0,West,11.5,-,0.01,Rain,Light Rain,280,2012-12-21 13:54:00
9:54 AM,44.1,37.9,79,29.41,10.0,WSW,8.1,-,0.01,,Overcast,250,2012-12-21 14:54:00
10:54 AM,44.1,37.9,79,29.42,10.0,WSW,9.2,18.4,N/A,,Overcast,250,2012-12-21 15:54:00
11:54 AM,44.1,36.0,73,29.41,10.0,WSW,9.2,-,N/A,,Overcast,250,2012-12-21 16:54:00
12:54 PM,46.0,32.0,58,29.40,10.0,West,12.7,23.0,0.00,,Overcast,260,2012-12-21 17:54:00
1:54 PM,46.0,28.0,50,29.41,10.0,West,11.5,21.9,N/A,,Overcast,260,2012-12-21 18:54:00
2:54 PM,45.0,27.0,49,29.42,10.0,WSW,15.0,26.5,N/A,,Overcast,250,2012-12-21 19:54:00
3:54 PM,45.0,26.1,48,29.44,10.0,West,9.2,-,N/A,,Overcast,260,2012-12-21 20:54:00
4:54 PM,44.1,24.1,45,29.46,10.0,West,13.8,-,N/A,,Overcast,260,2012-12-21 21:54:00
5:54 PM,44.1,25.0,47,29.49,10.0,West,13.8,23.0,N/A,,Overcast,260,2012-12-21 22:54:00
6:54 PM,43.0,25.0,49,29.52,10.0,West,12.7,-,N/A,,Overcast,260,2012-12-21 23:54:00
7:54 PM,42.1,24.1,49,29.53,10.0,West,13.8,-,N/A,,Overcast,260,2012-12-22 00:54:00
8:54 PM,42.1,25.0,51,29.54,10.0,WSW,10.4,17.3,N/A,,Overcast,250,2012-12-22 01:54:00
9:54 PM,42.1,21.9,45,29.55,10.0,West,15.0,27.6,N/A,,Overcast,270,2012-12-22 02:54:00
10:54 PM,41.0,21.9,47,29.56,10.0,West,12.7,23.0,N/A,,Mostly Cloudy,270,2012-12-22 03:54:00
11:54 PM,39.9,23.0,51,29.57,10.0,West,13.8,21.9,N/A,,Partly Cloudy,260,2012-12-22 04:54:00